Weather History for Pontiac, MI

Change the Weather History Date:

Tuesday, January 1, 2013

  Actual Average Record
Temperature  
Mean Temperature 18 °F -  
Max Temperature 26 °F 30 °F 51 °F (2007)
Min Temperature 10 °F 18 °F 1 °F (2001)
Degree Days  
Heating Degree Days 47    
Moisture  
Dew Point 10 °F    
Average Humidity 67    
Maximum Humidity 85    
Minimum Humidity 53    
Precipitation  
Precipitation 0.00 in - - ()
Snow  
Snow 0.00 in - - ()
Snow Depth 7.00 in    
Sea Level Pressure  
Sea Level Pressure 30.07 in    
Wind  
Wind Speed 8 mph (WNW)    
Max Wind Speed 13 mph    
Max Gust Speed -    
Visibility 10 miles    
Events      
Averages and records for this station are not official NWS values.
T = Trace of Precipitation, MM = Missing Value Source: NWS Daily Summary

Daily Weather History Graph

Daily Weather History Graph

Search for Another Location

Airport:

Trip Planner

Search our weather history database for the weather conditions in past years. The results will help you decide how hot, cold, wet, or windy it might be!

Date:

Astronomy

Jan. 01, 2013 Rise Set
Actual Time 8:03 AM EST 5:11 PM EST
Civil Twilight 7:31 AM EST 5:43 PM EST
Nautical Twilight 6:56 AM EST 6:18 PM EST
Astronomical Twilight 6:22 AM EST 6:52 PM EST
Moon 9:47 PM EST (1/1) 10:09 AM EST (1/1)
Length of Visible Light 10h 11m
Length of Day
9h 07m
Waning Gibbous, 83% of the Moon is Illuminated
Jan 1
Waning Gibbous
Jan 4
Last Quarter
Jan 11
New
Jan 18
First Quarter
Jan 26
Full

Hourly Weather History & Observations

Time (EST) Temp. Windchill Dew Point Humidity Pressure Visibility Wind Dir Wind Speed Gust Speed Precip Events Conditions
12:00 AM 26.6 °F 16.2 °F 17.6 °F 69% 29.99 in 10.0 mi NW 11.5 mph - N/A   Overcast
12:53 AM 26.1 °F 16.8 °F 17.1 °F 69% 30.02 in 10.0 mi WNW 9.2 mph - N/A   Overcast
1:53 AM 25.0 °F 17.1 °F 16.0 °F 69% 30.03 in 10.0 mi NW 6.9 mph - N/A   Overcast
2:53 AM 25.0 °F 15.5 °F 16.0 °F 69% 30.04 in 10.0 mi NW 9.2 mph - N/A   Overcast
3:53 AM 24.8 °F 14.6 °F 14.0 °F 64% 30.00 in 10.0 mi NNW 10.4 mph - N/A   Overcast
4:53 AM 23.0 °F 13.1 °F 14.0 °F 68% 30.05 in 10.0 mi NNW 9.2 mph - N/A   Overcast
5:53 AM 21.9 °F 11.7 °F 15.1 °F 75% 30.06 in 10.0 mi NW 9.2 mph - N/A   Overcast
6:53 AM 21.0 °F 11.4 °F 12.0 °F 68% 30.06 in 10.0 mi North 8.1 mph - N/A   Overcast
7:15 AM 19.4 °F 10.4 °F 12.2 °F 74% 30.05 in 10.0 mi NNW 6.9 mph - N/A   Overcast
7:53 AM 19.9 °F 12.1 °F 12.0 °F 71% 30.10 in 10.0 mi NW 5.8 mph - N/A   Overcast
8:53 AM 19.9 °F 9.3 °F 10.9 °F 68% 30.12 in 10.0 mi WNW 9.2 mph - N/A   Overcast
9:39 AM 19.4 °F 10.4 °F 8.6 °F 63% 30.09 in 10.0 mi NW 6.9 mph - N/A   Mostly Cloudy
9:53 AM 19.9 °F 10.1 °F 8.1 °F 60% 30.14 in 10.0 mi WNW 8.1 mph - N/A   Mostly Cloudy
10:53 AM 19.9 °F 8.6 °F 8.1 °F 60% 30.16 in 10.0 mi NNW 10.4 mph - N/A   Mostly Cloudy
11:53 AM 21.0 °F 8.6 °F 8.1 °F 57% 30.11 in 10.0 mi North 12.7 mph - N/A   Mostly Cloudy
12:53 PM 21.9 °F 13.4 °F 8.1 °F 55% 30.09 in 10.0 mi North 6.9 mph - N/A   Mostly Cloudy
1:53 PM 21.9 °F 14.5 °F 7.0 °F 53% 30.09 in 10.0 mi WNW 5.8 mph - N/A   Mostly Cloudy
2:53 PM 21.9 °F 13.4 °F 7.0 °F 53% 30.09 in 10.0 mi NW 6.9 mph - N/A   Mostly Cloudy
3:53 PM 21.0 °F 10.6 °F 8.1 °F 57% 30.10 in 10.0 mi West 9.2 mph - N/A   Mostly Cloudy
4:53 PM 21.2 °F 13.6 °F 8.6 °F 58% 30.06 in 10.0 mi West 5.8 mph - N/A   Mostly Cloudy
5:53 PM 19.0 °F 12.3 °F 7.0 °F 59% 30.10 in 10.0 mi West 4.6 mph - N/A   Partly Cloudy
6:53 PM 18.0 °F 12.7 °F 7.0 °F 62% 30.09 in 10.0 mi West 3.5 mph - N/A   Partly Cloudy
7:53 PM 12.9 °F - 5.0 °F 71% 30.09 in 10.0 mi Calm Calm - N/A   Partly Cloudy
8:53 PM 12.0 °F - 7.0 °F 80% 30.09 in 10.0 mi Calm Calm - N/A   Partly Cloudy
9:41 PM 10.4 °F 4.0 °F 6.8 °F 85% 30.04 in 10.0 mi WSW 3.5 mph - N/A   Mostly Cloudy
9:53 PM 14.0 °F 6.5 °F 8.1 °F 77% 30.10 in 10.0 mi WSW 4.6 mph - N/A   Mostly Cloudy
10:53 PM 16.0 °F 8.8 °F 9.0 °F 74% 30.09 in 10.0 mi West 4.6 mph - N/A   Overcast
11:28 PM 17.6 °F 9.3 °F 10.4 °F 73% 30.03 in 10.0 mi WSW 5.8 mph - N/A   Scattered Clouds
11:48 PM 17.6 °F 6.4 °F 10.4 °F 73% 30.04 in 10.0 mi West 9.2 mph - N/A   Mostly Cloudy
11:53 PM 18.0 °F 6.9 °F 10.0 °F 71% 30.09 in 10.0 mi West 9.2 mph - N/A   Mostly Cloudy